Regional Weather Roundup
Issued by NWS

Home | Current Version | Previous Version | Graphics & Text | Print | Product List | Glossary Off
Versions: 1 2 3 4 5 6 7 8 9 10 11 12 13 14 15 16 17 18 19 20 21 22 23 24 25 26 27 28 29 30 31 32 33 34 35 36 37 38 39 40 41 42 43 44 45 46 47 48 49 50

000
ASUS43 KMKX 191111
RWRWI

WISCONSIN REGIONAL WEATHER ROUNDUP
NATIONAL WEATHER SERVICE MILWAUKEE/SULLIVAN WI
600 AM CDT THU OCT 19 2017

NOTE: "FAIR" INDICATES FEW OR NO CLOUDS BELOW 12,000 FEET WITH NO
SIGNIFICANT WEATHER AND/OR OBSTRUCTIONS TO VISIBILITY.

WIZ001-002-006>008-014>016-023>028-191200-
NORTHWEST WISCONSIN

CITY           SKY/WX    TMP DP  RH WIND       PRES   REMARKS
SUPERIOR ARPT  CLOUDY    43  27  51 SW9       29.96S
ASHLAND        CLOUDY    45  25  45 SW10      29.96R
HAYWARD        PTCLDY    37  28  70 S5        30.00R WCI  33
SIREN          CLEAR     42  30  63 W5        30.02R
CUMBERLAND     CLOUDY    36  30  80 W3        30.03R
RICE LAKE      CLOUDY    35  31  87 CALM      30.05R
CHETEK         CLOUDY    37  31  76 CALM      30.04R
LADYSMITH      PTCLDY    40  29  64 S5        30.03S
EAU CLAIRE     CLOUDY    39  30  70 CALM      30.04R
MENOMONIE      CLOUDY    40  32  73 CALM      30.05R
NEW RICHMOND   CLOUDY    40  32  70 S3        30.04R
OSCEOLA        CLOUDY    35  32  87 E3        30.06S
$$

WIZ003>005-009-010-017-018-191200-
NORTH CENTRAL WISCONSIN

CITY           SKY/WX    TMP DP  RH WIND       PRES   REMARKS
MANITOWISH WTR CLOUDY    43  24  46 SW7       29.96R
ARBOR VITAE    PTCLDY    44  24  45 W6        29.97R
WOODRUFF       PTCLDY    44  24  45 W6        29.97R
RHINELANDER    CLOUDY    37  25  61 W8        29.99R WCI  31
EAGLE RIVER    CLOUDY    45  20  37 W9        29.95R
LAND O LAKES   CLOUDY    46  21  37 W3        29.96R
PHILLIPS       CLEAR     41  25  53 W3        29.99R
TOMAHAWK       CLOUDY    36  25  65 CALM      30.01R
MEDFORD        CLOUDY    39  27  62 SW3       30.02R
MERRILL        CLOUDY    36  27  70 CALM      30.02R
$$

WIZ029-030-035-036-043>047-191200-
CENTRAL WISCONSIN

CITY           SKY/WX    TMP DP  RH WIND       PRES   REMARKS
WAUSAU         PTCLDY    45  28  51 NW6       30.01R
MOSINEE        CLEAR     43  28  56 W8        30.04R
MARSHFIELD     CLOUDY    41  27  57 W7        30.03R
STEVENS POINT  CLOUDY    45  26  48 W5        30.05R
WAUPACA        CLOUDY    47  28  47 W5        30.05R
WAUTOMA        MOCLDY    43  31  62 W6        30.06R
WISC RAPIDS    CLOUDY    44  28  53 W5        30.06R
CAMP DOUGLAS   CLOUDY    38  32  79 CALM      30.06R
$$

WIZ011>013-019>022-031-037>040-048>050-191200-
NORTHEAST WISCONSIN

CITY           SKY/WX    TMP DP  RH WIND       PRES   REMARKS
ANTIGO         CLOUDY    40  26  58 W7        30.01R
SHAWANO        CLOUDY    47  28  45 SW3       30.02R
OCONTO         CLOUDY    43  28  54 SW6       30.01R
STURGEON BAY   CLOUDY    50  30  46 W7        30.00R
GREEN BAY      CLOUDY    48  31  51 SW6       30.03R
MANITOWOC      CLOUDY    50  31  48 W7        30.03R
APPLETON       PTCLDY    46  25  42 SW9       30.02R
CLINTONVILLE   CLOUDY    46  27  46 W5        30.03R
OSHKOSH        CLOUDY    48  29  47 W6        30.04R
$$

WIZ032>034-041-042-053>061-191200-
SOUTHWEST WISCONSIN

CITY           SKY/WX    TMP DP  RH WIND       PRES   REMARKS
LA CROSSE      CLOUDY    46  37  71 S7        30.07R
SPARTA         CLOUDY    34  32  92 CALM      30.08R
VIROQUA        CLOUDY    48  29  46 CALM      30.09R
BOSCOBEL       CLOUDY    40  38  93 CALM      30.11R FOG
PRAIRIE DU CHI CLOUDY    41  35  79 E3        30.10R
PLATTEVILLE    CLOUDY    48  39  71 CALM      30.10R
$$

WIZ056-057-062-063-064-067-068-191200-
SOUTH CENTRAL WISCONSIN

CITY           SKY/WX    TMP DP  RH WIND       PRES   REMARKS
REEDSBURG      CLOUDY    43  35  73 CALM      30.09R
BARABOO/DELLS  CLOUDY    44  31  60 SW3       30.08R
LONE ROCK      PTCLDY    40  38  93 CALM      30.10R
MINERAL POINT  CLOUDY    50  32  50 CALM      30.09S
MADISON        MOCLDY    44  37  76 CALM      30.09R
MIDDLETON      MOCLDY    43  38  82 CALM      30.09R
WATERTOWN      CLOUDY    42  40  93 CALM      30.08R
MONROE         CLOUDY    52  32  46 N7        30.09R
JANESVILLE     CLOUDY    45  45 100 CALM      30.09R
$$

WIZ051-052-058>065-066-070>072-191200-
SOUTHEAST WISCONSIN

CITY           SKY/WX    TMP DP  RH WIND       PRES   REMARKS
MILWAUKEE      CLOUDY    55  28  35 NW6       30.07R
WAUKESHA       CLEAR     50  30  46 W9        30.08R
MILWAUKEE/TIMM PTCLDY    50  23  34 W6        30.07R
RACINE         CLOUDY    53  37  54 NW5       30.08R
BURLINGTON     PTCLDY    48  37  64 CALM      30.08R
KENOSHA        CLOUDY    48  41  76 W3        30.07R
FOND DU LAC    PTCLDY    49  28  44 SW7       30.06R
SHEBOYGAN      CLOUDY    50  31  48 W5        30.04R
WEST BEND      CLOUDY    50  25  37 W8        30.06R
JUNEAU         CLOUDY    46  31  56 CALM      30.08R
$$

LSZ147-162-191200-
LAKE SUPERIOR

STATION/POSITION TIME  TEMP    WIND        PRES    WAVE
                       AIR SEA DIR/SP/G            HT/PER
                 (UTC) (F)     (DEG/KT/KT) (MB)    (FT/S)
W MID LAKE BUOY  1050   53 52              1010.6R   7/ 6
DEVILS ISLAND    1100   53     250/ 28/ 34 1012.5R
SAXON HARBOR     1040   52     240/  8/ 13 1013.5R
$$

LMZ867-665-643>646-191200-
LAKE MICHIGAN

STATION/POSITION TIME  TEMP    WIND        PRES    WAVE
                       AIR SEA DIR/SP/G            HT/PER
                 (UTC) (F)     (DEG/KT/KT) (MB)    (FT/S)
S GREEN BAY BUOY 1100   55 58  230/ 14/ 17 1015.7
N MID LAKE BUOY  1050   57 58  260/ 17/ 21 1014.3R   5/ 7
NORTHPORT PIER   1040   55     270/  6/ 12 1014.2R
KEWAUNEE LAKESHO 0900   55     270/  8/ 11 1013.7
SHEBOYGAN LAKESH 1100   54     290/ 11/ 15 1017.2R
PORT WASHINGTON  1040   55     280/  4/  7 1018.3R
MILWAUKEE LAKESH 1050   56     310/  5/  7   N/A
S MID LAKE BUOY  1050   59 61  310/ 14/ 16 1017.5R   3/ 5
KENOSHA   LAKESH 1100   55     280/  7/  9 1018.3
$$

TC  - TEMPERATURE IN CELSIUS
VSB - VISIBILITY IN STATUTE MILES
WCI - WIND CHILL INDEX
HX  - HEAT INDEX





USA.gov is the U.S. government's official web portal to all federal, state and local government web resources and services.